Regional Weather Roundup
Issued by NWS

Home | Current Version | Previous Version | Graphics & Text | Print | Product List | Glossary On
Versions: 1 2 3 4 5 6 7 8 9 10 11 12 13 14 15 16 17 18 19 20 21 22 23 24 25 26 27 28 29 30 31 32 33 34 35 36 37 38 39 40 41 42 43 44 45 46 47 48 49 50
000
ASUS43 KLOT 240110
RWRIL

ILLINOIS REGIONAL WEATHER ROUNDUP
NATIONAL WEATHER SERVICE CHICAGO/ROMEOVILLE IL
800 PM CDT WED JUL 23 2014

NOTE: "FAIR" INDICATES FEW OR NO CLOUDS BELOW 12,000 FEET WITH NO
SIGNIFICANT WEATHER AND/OR OBSTRUCTIONS TO VISIBILITY.

* THESE STATIONS ARE NOT UNDER NWS QUALITY CONTROL. THEY ALSO MAY NOT
  REPORT WEATHER SUCH AS PRECIPITATION OR FOG.

ILZ001-002-007-009-015-016-024-240200-
NORTHWEST ILLINOIS

CITY           SKY/WX    TMP DP  RH WIND       PRES   REMARKS
MOLINE         CLEAR     75  54  47 NE7       30.12R
STERLING*      CLEAR     72  57  60 NE5       30.13S
SAVANNA*       CLEAR     74  57  54 CALM      30.13S
$$

ILZ003-004-008-010-011-017-018-240200-
NORTH CENTRAL ILLINOIS

CITY           SKY/WX    TMP DP  RH WIND       PRES   REMARKS
ROCKFORD       PTCLDY    72  54  53 E12       30.15R
FREEPORT*      CLEAR     68  59  71 NE5       30.16S
ROCHELLE*      CLEAR     71  55  57 NE8       30.13S
DE KALB*       CLEAR     65  55  68 NE9       30.15S
PERU*          CLEAR     73  55  53 NE7       30.12S
$$

ILZ005-006-012>014-019>023-240200-
NORTHEAST ILLINOIS

CITY           SKY/WX    TMP DP  RH WIND       PRES   REMARKS
CHICAGO-OHARE  PTCLDY    65  49  56 N12       30.14F
CHICAGO-MIDWAY PTCLDY    67  50  54 N17G24    30.14S
AURORA         CLEAR     67  54  63 NE8       30.14S
LANSING*       CLEAR     63  50  62 N12G21    30.14F
JOLIET*        CLEAR     65  52  62 NE7G16    30.14S
WAUKEGAN       CLEAR     61  50  67 N8G17     30.15S
DUPAGE AIRPORT CLEAR     65  51  60 NE12      30.14S
KANKAKEE*      CLEAR     64  54  70 N10G20    30.12F
WHEELING       CLEAR     64  52  64 N6G16     30.17R
MORRIS*        CLEAR     67  55  65 NE5       30.13S
ROMEOVILLE*    CLEAR     64  52  64 NE13      30.14S
NORTHERLY ISL    N/A     62  52  69 N10         N/A
$$

LMZ740>746-240200-
SOUTHERN LAKE MICHIGAN

STATION/POSITION SKY/WX   TEMP    WIND        PRES    VSBY  WAVE
                          AIR SEA DIR/SP/G                  HT/PER
                          (F)     (DEG/KT/KT) (MB)    (MI)  (FT/S)
SOUTHERN BUOY              60 60  350/ 19/ 23 1019.8F         5/ 6
WAUKEGAN HARBOR            62      10/ 12/ 18 1022.0S
HARRISON CRIB              63     360/ 19/ 22   N/A
BURNHAM HARBOR             62     350/ 11/ 16   N/A
CALUMET HARBOR             63     340/  8/ 13 1019.5F
MICHIGAN CITY              63     360/ 24/ 27   N/A
MICHIGAN CITY 6N           64 69   10/ 19/ 23   N/A           9/ 2
ST. JOSEPH                 60 54   10/ 14/ 17   N/A           6/ 2
$$

ILZ025>027-034>036-040-047-049-050-058-095>099-240200-
WEST-CENTRAL ILLINOIS

CITY           SKY/WX    TMP DP  RH WIND       PRES   REMARKS
QUINCY         MOCLDY    74  59  59 N7        30.13R
GALESBURG*     CLEAR     72  60  65 N6        30.13R
MACOMB*        CLEAR     71  60  67 N5        30.14S
JACKSONVILLE*  PTCLDY    75  61  61 N5        30.12R
PITTSFIELD*    CLEAR     74  58  57 NE5       30.13R
$$

ILZ028>032-037-038-041>044-048-051>054-059>061-240200-
CENTRAL ILLINOIS

CITY           SKY/WX    TMP DP  RH WIND       PRES   REMARKS
PONTIAC        CLEAR     70  55  60 E7        30.12R
DECATUR        CLEAR     72  57  60 NE12      30.11R
PEORIA         CLEAR     76  55  48 N6        30.11S
LACON*         CLEAR     72  55  55 CALM      30.11R
LINCOLN*       CLEAR     71  58  62 NE7       30.08S
SPRINGFIELD    CLEAR     74  59  59 NE7       30.10R
TAYLORVILLE    CLEAR     70  57  64 NE9       30.10R
$$

ILZ033-039-045-046-055>057-062-063-240200-
EAST-CENTRAL ILLINOIS

CITY           SKY/WX    TMP DP  RH WIND       PRES   REMARKS
CHAMPAIGN      CLEAR     68  50  52 NE13G23   30.11R
DANVILLE*      CLEAR     63  48  59 N12G18    30.08R
RANTOUL*       CLEAR     69  49  49 NE10      30.12S
MATTOON        CLEAR     68  53  58 N15       30.08R
PARIS*         CLEAR     67  55  63 N6        30.09R
$$

ILZ079-100>102-240200-
SOUTHWEST ILLINOIS

CITY           SKY/WX    TMP DP  RH WIND       PRES   REMARKS
ALTON          CLEAR     75  64  69 NE9       30.09R
BELLEVILLE     CLOUDY    77  63  63 NE9       30.07R
CAHOKIA*       CLOUDY    79  63  57 NE12      30.07R HX  80
SPARTA*        CLOUDY    75  64  69 N9        30.06R
$$

ILZ064>066-069>071-074>076-080>082-084>086-088>090-092>094-240200-
SOUTH-CENTRAL ILLINOIS

CITY           SKY/WX    TMP DP  RH WIND       PRES   REMARKS
CARBONDALE     PTCLDY    77  69  76 NE6       30.03R
CAIRO*         MOCLDY    76  69  79 W5        30.01R
EFFINGHAM*     CLEAR     71  51  48 N9        30.08R
MARION         CLOUDY    77  72  83 CALM      30.04R
MT. VERNON     CLEAR     75  63  64 N7        30.05R
CENTRALIA*     CLEAR     74  58  56 N8        30.07R
SALEM*         CLEAR     75  60  58 N10       30.08R
METROPOLIS*    CLOUDY    77  67  72 CALM      30.01R
$$

ILZ067-068-072-073-078-083-087-091-240200-
SOUTHEAST ILLINOIS

CITY           SKY/WX    TMP DP  RH WIND       PRES   REMARKS
LAWRENCEVILLE  CLOUDY    75  63  66 N20       30.03R
FLORA*         CLEAR     72  59  63 N10       30.05R
FAIRFIELD*     CLEAR     75  66  73 N8        30.03R
HARRISBURG*    MOCLDY    75  72  88 CALM      30.04R
ROBINSON*      PTCLDY    73  59  62 N5G17     30.05R
CARMI*         CLEAR     73  72  94 CALM      30.02R
$$

ABBREVIATIONS USED IN REMARKS
   TC - TEMPERATURE IN CELSIUS
  WCI - WIND CHILL INDEX
   HX - HEAT INDEX
  VSB - VISIBILITY
$$



USA.gov is the U.S. government's official web portal to all federal, state and local government web resources and services.